WXM80 ListenWXM80 Stop

You find our weather info also at:

UK Metoffice

WeatherCloud

Weather Underground

Northeastern Weather Network

AWEKAS

Citizen Weather Observer Program (CWOP)

HAMweather, WeatherForYou, PWS Weather


Weather Underground History page Text

Daily Summary for November 27, 2017 Units:  English    Metric   Both
« Previous Day
Next Day »
Daily Weekly Monthly Yearly Custom
  High: Low: Average:
Temperature: 50.0 °F 37.9 °F 44 °F
Dew Point: 34.3 °F 25.9 °F 30 °F
Humidity: 73 % 48 % 58 %
Wind Speed: 11.5 mph 0.3 mph 4.9 mph
Wind Gust: 21.9 mph - -
Wind:- - WSW
Pressure: 30.32 in 29.96 in -
Precipitation: 0.00 in    
Historical Graphs
 
 
Tabular Data for November 27, 2017
Time Temperature Dew Point Pressure Wind Wind Speed Wind Gust Humidity Rainfall Rate (Hourly)
00:03 38.7 °F 29.0 °F 29.98 in SSW 1.3 mph 5.0 mph 68 % 0.00 in
00:08 38.7 °F 29.0 °F 29.98 in SW 0.6 mph 3.5 mph 68 % 0.00 in
00:13 38.7 °F 29.0 °F 29.98 in WSW 2.3 mph 3.5 mph 68 % 0.00 in
00:18 38.8 °F 29.1 °F 29.98 in WSW 1.8 mph 3.5 mph 68 % 0.00 in
00:23 38.8 °F 29.1 °F 29.98 in WSW 2.2 mph 5.8 mph 68 % 0.00 in
00:29 38.9 °F 29.2 °F 29.98 in West 2.5 mph 8.1 mph 68 % 0.00 in
00:34 39.1 °F 29.8 °F 29.98 in WSW 2.2 mph 4.6 mph 69 % 0.00 in
00:39 39.2 °F 29.5 °F 29.97 in SW 5.8 mph 8.1 mph 68 % 0.00 in
00:44 39.3 °F 29.6 °F 29.97 in WSW 3.2 mph 6.0 mph 68 % 0.00 in
00:49 39.5 °F 29.4 °F 29.97 in SW 2.9 mph 4.6 mph 67 % 0.00 in
00:54 39.6 °F 29.5 °F 29.97 in WNW 3.3 mph 6.9 mph 67 % 0.00 in
00:59 39.8 °F 29.7 °F 29.97 in WSW 3.1 mph 7.0 mph 67 % 0.00 in
01:04 40.1 °F 29.6 °F 29.97 in SW 3.6 mph 11.5 mph 66 % 0.00 in
01:09 40.3 °F 29.8 °F 29.97 in NW 4.8 mph 12.0 mph 66 % 0.00 in
01:14 40.5 °F 29.7 °F 29.97 in SW 3.7 mph 4.6 mph 65 % 0.00 in
01:19 40.6 °F 29.7 °F 29.97 in South 3.9 mph 6.9 mph 65 % 0.00 in
01:24 40.7 °F 30.2 °F 29.98 in West 9.3 mph 10.4 mph 66 % 0.00 in
01:29 40.9 °F 30.0 °F 29.98 in SW 5.6 mph 16.1 mph 65 % 0.00 in
01:34 40.9 °F 30.0 °F 29.98 in SSW 2.7 mph 8.1 mph 65 % 0.00 in
01:39 41.0 °F 30.1 °F 29.97 in South 1.8 mph 11.5 mph 65 % 0.00 in
01:45 41.0 °F 29.7 °F 29.97 in SW 5.5 mph 11.5 mph 64 % 0.00 in
01:50 41.0 °F 30.1 °F 29.97 in West 3.4 mph 8.1 mph 65 % 0.00 in
01:55 41.1 °F 29.8 °F 29.97 in NW 5.4 mph 10.4 mph 64 % 0.00 in
02:00 41.1 °F 30.2 °F 29.98 in West 2.4 mph 9.0 mph 65 % 0.00 in
02:05 41.0 °F 29.7 °F 29.97 in WSW 4.3 mph 9.2 mph 64 % 0.00 in
02:06 41.1 °F 29.8 °F 29.97 in WSW 6.0 mph 12.0 mph 64 % 0.00 in
02:11 41.0 °F 30.1 °F 29.97 in SW 2.0 mph 6.0 mph 65 % 0.00 in
02:16 41.0 °F 30.1 °F 29.97 in WSW 7.0 mph 12.0 mph 65 % 0.00 in
02:21 40.9 °F 30.0 °F 29.97 in WSW 7.0 mph 16.0 mph 65 % 0.00 in
02:26 40.9 °F 29.7 °F 29.97 in SW 3.0 mph 10.0 mph 64 % 0.00 in
02:31 40.9 °F 29.7 °F 29.97 in SW 5.0 mph 9.0 mph 64 % 0.00 in
02:36 40.8 °F 29.6 °F 29.97 in SW 3.0 mph 8.0 mph 64 % 0.00 in
02:41 40.7 °F 29.8 °F 29.97 in SW 2.0 mph 6.0 mph 65 % 0.00 in
02:46 40.6 °F 29.7 °F 29.97 in SW 5.0 mph 9.0 mph 65 % 0.00 in
02:51 40.5 °F 29.7 °F 29.96 in WSW 3.0 mph 7.0 mph 65 % 0.00 in
02:56 40.4 °F 29.6 °F 29.96 in WSW 3.0 mph 9.0 mph 65 % 0.00 in
03:01 40.3 °F 29.8 °F 29.97 in West 2.8 mph 9.2 mph 66 % 0.00 in
03:06 40.3 °F 29.8 °F 29.97 in SW 1.1 mph 3.5 mph 66 % 0.00 in
03:11 40.2 °F 30.1 °F 29.96 in SW 3.4 mph 6.9 mph 67 % 0.00 in
03:16 40.2 °F 30.1 °F 29.96 in WSW 4.2 mph 8.1 mph 67 % 0.00 in
03:21 40.2 °F 30.1 °F 29.96 in West 6.2 mph 13.0 mph 67 % 0.00 in
03:26 40.2 °F 30.1 °F 29.96 in SSW 2.5 mph 5.0 mph 67 % 0.00 in
03:31 40.1 °F 30.0 °F 29.96 in SSW 6.6 mph 10.4 mph 67 % 0.00 in
03:36 40.1 °F 29.6 °F 29.97 in WSW 2.2 mph 7.0 mph 66 % 0.00 in
03:41 40.1 °F 29.6 °F 29.97 in WSW 3.1 mph 4.6 mph 66 % 0.00 in
03:46 40.0 °F 29.6 °F 29.97 in SW 3.5 mph 5.0 mph 66 % 0.00 in
03:47 40.0 °F 29.6 °F 29.97 in SW 3.1 mph 6.9 mph 66 % 0.00 in
03:52 39.9 °F 29.5 °F 29.97 in WSW 2.7 mph 3.5 mph 66 % 0.00 in
03:57 39.8 °F 29.4 °F 29.97 in SSW 2.0 mph 4.6 mph 66 % 0.00 in
04:02 39.7 °F 29.3 °F 29.97 in South 3.2 mph 6.9 mph 66 % 0.00 in
04:08 39.6 °F 29.2 °F 29.97 in SSW 3.6 mph 5.8 mph 66 % 0.00 in
04:13 39.5 °F 29.1 °F 29.97 in WSW 3.3 mph 6.9 mph 66 % 0.00 in
04:18 39.4 °F 29.0 °F 29.97 in SW 1.4 mph 5.8 mph 66 % 0.00 in
04:23 39.3 °F 28.9 °F 29.97 in SSW 1.5 mph 3.5 mph 66 % 0.00 in
04:28 39.1 °F 28.7 °F 29.97 in SSW 3.4 mph 5.8 mph 66 % 0.00 in
04:33 39.0 °F 29.0 °F 29.97 in SSW 3.8 mph 6.9 mph 67 % 0.00 in
04:38 38.9 °F 28.9 °F 29.97 in WSW 3.1 mph 4.6 mph 67 % 0.00 in
04:43 38.7 °F 28.7 °F 29.97 in SSW 1.3 mph 4.0 mph 67 % 0.00 in
04:48 38.6 °F 28.6 °F 29.97 in SSW 2.0 mph 4.6 mph 67 % 0.00 in
04:58 38.4 °F 28.8 °F 29.98 in SW 3.3 mph 8.1 mph 68 % 0.00 in
05:03 38.3 °F 28.7 °F 29.98 in SSW 1.5 mph 4.6 mph 68 % 0.00 in
05:08 38.3 °F 28.7 °F 29.98 in SW 2.5 mph 4.6 mph 68 % 0.00 in
05:13 38.2 °F 28.6 °F 29.98 in SW 1.8 mph 3.5 mph 68 % 0.00 in
05:18 38.2 °F 28.6 °F 29.98 in WSW 1.3 mph 3.5 mph 68 % 0.00 in
05:23 38.1 °F 28.5 °F 29.98 in WSW 0.9 mph 6.0 mph 68 % 0.00 in
05:28 38.0 °F 28.7 °F 29.99 in SW 1.1 mph 3.5 mph 69 % 0.00 in
05:33 38.0 °F 28.7 °F 29.99 in SW 1.2 mph 3.0 mph 69 % 0.00 in
05:38 38.0 °F 28.7 °F 29.99 in SW 1.5 mph 3.5 mph 69 % 0.00 in
05:43 37.9 °F 29.0 °F 29.99 in SW 1.5 mph 3.5 mph 70 % 0.00 in
05:48 37.9 °F 29.3 °F 29.99 in WSW 2.2 mph 3.5 mph 71 % 0.00 in
05:53 38.0 °F 29.8 °F 30.00 in West 3.8 mph 7.0 mph 72 % 0.00 in
05:58 38.2 °F 30.3 °F 30.00 in SW 5.1 mph 8.1 mph 73 % 0.00 in
06:02 38.5 °F 30.6 °F 30.00 in WSW 3.3 mph 9.2 mph 73 % 0.00 in
06:07 38.9 °F 30.6 °F 30.00 in WSW 5.0 mph 5.8 mph 72 % 0.00 in
06:12 39.3 °F 30.7 °F 30.00 in West 3.9 mph 11.5 mph 71 % 0.00 in
06:17 39.7 °F 31.1 °F 30.01 in WNW 5.0 mph 5.8 mph 71 % 0.00 in
06:23 40.0 °F 31.0 °F 30.00 in WSW 4.8 mph 5.8 mph 70 % 0.00 in
06:28 40.2 °F 31.2 °F 30.01 in WNW 1.7 mph 3.5 mph 70 % 0.00 in
06:33 40.4 °F 31.4 °F 30.01 in SW 6.6 mph 10.4 mph 70 % 0.00 in
06:38 40.6 °F 31.2 °F 30.01 in WSW 6.8 mph 13.8 mph 69 % 0.00 in
06:43 40.8 °F 31.4 °F 30.01 in SW 6.2 mph 11.5 mph 69 % 0.00 in
06:48 41.0 °F 31.2 °F 30.01 in WSW 8.9 mph 12.0 mph 68 % 0.00 in
06:53 41.2 °F 31.4 °F 30.01 in WNW 3.9 mph 10.4 mph 68 % 0.00 in
06:58 41.4 °F 31.3 °F 30.02 in WNW 6.4 mph 11.5 mph 67 % 0.00 in
07:03 41.5 °F 31.4 °F 30.02 in West 10.0 mph 15.0 mph 67 % 0.00 in
07:08 41.6 °F 31.4 °F 30.02 in WNW 6.4 mph 10.4 mph 67 % 0.00 in
07:13 41.6 °F 31.4 °F 30.02 in West 5.5 mph 10.4 mph 67 % 0.00 in
07:18 41.6 °F 31.4 °F 30.02 in SW 6.6 mph 14.0 mph 67 % 0.00 in
07:23 41.7 °F 31.5 °F 30.03 in SW 7.1 mph 10.0 mph 67 % 0.00 in
07:28 41.8 °F 31.6 °F 30.03 in West 3.6 mph 8.0 mph 67 % 0.00 in
07:33 41.8 °F 31.6 °F 30.03 in West 9.3 mph 13.0 mph 67 % 0.00 in
07:38 41.8 °F 31.6 °F 30.03 in WSW 3.3 mph 3.5 mph 67 % 0.00 in
07:43 41.9 °F 31.7 °F 30.04 in WNW 5.2 mph 8.1 mph 67 % 0.00 in
07:48 41.9 °F 31.7 °F 30.04 in WSW 8.2 mph 11.5 mph 67 % 0.00 in
07:53 42.0 °F 32.2 °F 30.05 in WSW 4.6 mph 9.2 mph 68 % 0.00 in
07:58 42.2 °F 32.0 °F 30.04 in WSW 7.2 mph 12.0 mph 67 % 0.00 in
08:03 42.3 °F 32.1 °F 30.05 in WNW 6.2 mph 10.4 mph 67 % 0.00 in
08:08 42.4 °F 32.2 °F 30.05 in NW 5.0 mph 11.5 mph 67 % 0.00 in
08:13 42.6 °F 32.4 °F 30.05 in WNW 6.9 mph 12.7 mph 67 % 0.00 in
08:18 42.8 °F 32.2 °F 30.05 in SSW 4.4 mph 12.7 mph 66 % 0.00 in
08:23 43.0 °F 32.8 °F 30.05 in SW 8.7 mph 10.4 mph 67 % 0.00 in
08:28 43.2 °F 32.6 °F 30.05 in WSW 5.8 mph 11.5 mph 66 % 0.00 in
08:34 43.4 °F 32.8 °F 30.05 in WNW 5.2 mph 10.4 mph 66 % 0.00 in
08:39 43.6 °F 33.0 °F 30.05 in West 6.0 mph 16.1 mph 66 % 0.00 in
08:44 43.9 °F 32.9 °F 30.05 in West 6.9 mph 10.4 mph 65 % 0.00 in
08:47 44.0 °F 33.0 °F 30.05 in West 6.7 mph 16.1 mph 65 % 0.00 in
08:52 44.4 °F 33.0 °F 30.05 in West 8.0 mph 13.8 mph 64 % 0.00 in
08:57 44.7 °F 33.3 °F 30.05 in NW 9.3 mph 17.3 mph 64 % 0.00 in
09:02 45.1 °F 33.6 °F 30.05 in NW 5.5 mph 10.4 mph 64 % 0.00 in
09:07 45.4 °F 33.5 °F 30.05 in West 7.0 mph 12.0 mph 63 % 0.00 in
09:12 45.8 °F 33.1 °F 30.05 in South 7.0 mph 10.4 mph 61 % 0.00 in
09:17 46.1 °F 33.4 °F 30.05 in West 7.2 mph 11.5 mph 61 % 0.00 in
09:22 46.4 °F 33.3 °F 30.05 in WNW 5.2 mph 8.1 mph 60 % 0.00 in
09:27 46.5 °F 32.9 °F 30.05 in WNW 8.5 mph 13.0 mph 59 % 0.00 in
09:32 46.7 °F 33.1 °F 30.05 in WNW 3.0 mph 9.2 mph 59 % 0.00 in
09:37 46.9 °F 33.3 °F 30.05 in WNW 3.8 mph 10.4 mph 59 % 0.00 in
09:42 47.2 °F 34.0 °F 30.05 in SSW 8.4 mph 11.5 mph 60 % 0.00 in
09:47 47.5 °F 34.3 °F 30.05 in SW 4.7 mph 9.2 mph 60 % 0.00 in
09:52 47.8 °F 33.7 °F 30.05 in WNW 10.0 mph 17.3 mph 58 % 0.00 in
09:57 47.9 °F 33.4 °F 30.05 in WSW 5.8 mph 12.0 mph 57 % 0.00 in
10:02 48.0 °F 33.0 °F 30.05 in WSW 4.1 mph 12.7 mph 56 % 0.00 in
10:07 48.2 °F 33.2 °F 30.05 in NW 4.1 mph 8.1 mph 56 % 0.00 in
10:12 48.3 °F 32.9 °F 30.05 in WNW 8.1 mph 11.5 mph 55 % 0.00 in
10:18 48.4 °F 31.6 °F 30.05 in NW 9.0 mph 20.7 mph 52 % 0.00 in
10:23 48.5 °F 32.1 °F 30.05 in NW 6.6 mph 15.0 mph 53 % 0.00 in
10:28 48.6 °F 32.2 °F 30.05 in WNW 11.5 mph 21.9 mph 53 % 0.00 in
10:33 48.6 °F 32.2 °F 30.05 in WNW 9.0 mph 15.0 mph 53 % 0.00 in
10:38 48.6 °F 32.7 °F 30.04 in West 11.0 mph 17.3 mph 54 % 0.00 in
10:43 48.7 °F 32.3 °F 30.04 in WSW 10.3 mph 20.0 mph 53 % 0.00 in
10:48 48.7 °F 32.3 °F 30.05 in West 6.8 mph 12.0 mph 53 % 0.00 in
10:53 48.5 °F 31.7 °F 30.04 in NW 9.0 mph 19.6 mph 52 % 0.00 in
10:58 48.4 °F 32.0 °F 30.04 in West 4.9 mph 14.0 mph 53 % 0.00 in
11:03 48.2 °F 31.9 °F 30.05 in West 4.7 mph 10.4 mph 53 % 0.00 in
11:08 48.1 °F 31.8 °F 30.05 in SW 5.1 mph 11.5 mph 53 % 0.00 in
11:13 48.0 °F 31.7 °F 30.05 in WSW 6.0 mph 13.8 mph 53 % 0.00 in
11:18 48.0 °F 31.7 °F 30.04 in WNW 9.6 mph 15.0 mph 53 % 0.00 in
11:23 48.0 °F 31.7 °F 30.04 in WSW 7.1 mph 13.0 mph 53 % 0.00 in
11:28 48.2 °F 32.3 °F 30.04 in West 6.2 mph 13.0 mph 54 % 0.00 in
11:33 48.3 °F 31.5 °F 30.04 in West 5.3 mph 12.0 mph 52 % 0.00 in
11:38 48.3 °F 31.0 °F 30.04 in NW 3.0 mph 16.1 mph 51 % 0.00 in
11:44 48.3 °F 30.5 °F 30.03 in SW 9.6 mph 19.6 mph 50 % 0.00 in
11:49 48.3 °F 31.5 °F 30.03 in WNW 6.9 mph 15.0 mph 52 % 0.00 in
11:54 48.4 °F 31.6 °F 30.03 in WNW 8.1 mph 12.7 mph 52 % 0.00 in
11:58 48.4 °F 30.1 °F 30.03 in NW 10.8 mph 20.0 mph 49 % 0.00 in
12:03 48.4 °F 30.6 °F 30.04 in West 6.4 mph 15.0 mph 50 % 0.00 in
12:09 48.5 °F 30.2 °F 30.04 in West 7.6 mph 16.1 mph 49 % 0.00 in
12:14 48.6 °F 30.8 °F 30.04 in NW 9.5 mph 17.3 mph 50 % 0.00 in
12:19 48.7 °F 31.8 °F 30.04 in West 7.8 mph 15.0 mph 52 % 0.00 in
12:24 48.8 °F 31.0 °F 30.04 in WSW 6.4 mph 12.7 mph 50 % 0.00 in
12:29 48.8 °F 30.5 °F 30.04 in WNW 8.5 mph 18.4 mph 49 % 0.00 in
12:34 48.8 °F 31.0 °F 30.04 in NNW 8.3 mph 13.8 mph 50 % 0.00 in
12:39 48.8 °F 31.0 °F 30.04 in WSW 6.9 mph 13.8 mph 50 % 0.00 in
12:44 48.9 °F 31.5 °F 30.04 in WNW 5.1 mph 11.5 mph 51 % 0.00 in
12:49 49.0 °F 31.6 °F 30.04 in WNW 6.0 mph 15.0 mph 51 % 0.00 in
12:54 49.0 °F 32.6 °F 30.04 in NW 7.1 mph 11.5 mph 53 % 0.00 in
12:59 49.1 °F 32.7 °F 30.04 in West 5.5 mph 11.5 mph 53 % 0.00 in
13:04 49.3 °F 31.4 °F 30.04 in West 6.8 mph 16.1 mph 50 % 0.00 in
13:09 49.3 °F 31.4 °F 30.04 in NW 10.7 mph 17.3 mph 50 % 0.00 in
13:14 49.4 °F 31.5 °F 30.04 in West 8.1 mph 13.8 mph 50 % 0.00 in
13:19 49.4 °F 31.5 °F 30.04 in WNW 6.7 mph 9.2 mph 50 % 0.00 in
13:24 49.5 °F 31.6 °F 30.04 in WSW 7.4 mph 13.0 mph 50 % 0.00 in
13:29 49.6 °F 31.7 °F 30.04 in WNW 5.8 mph 9.0 mph 50 % 0.00 in
13:34 49.7 °F 31.8 °F 30.04 in WSW 7.9 mph 11.5 mph 50 % 0.00 in
13:39 49.8 °F 30.9 °F 30.04 in West 8.1 mph 11.5 mph 48 % 0.00 in
13:44 49.9 °F 31.5 °F 30.04 in WSW 6.7 mph 13.8 mph 49 % 0.00 in
13:50 50.0 °F 31.6 °F 30.04 in NW 8.5 mph 10.4 mph 49 % 0.00 in
13:55 50.0 °F 31.6 °F 30.04 in SW 6.4 mph 11.5 mph 49 % 0.00 in
14:00 50.0 °F 31.6 °F 30.04 in NW 6.1 mph 12.0 mph 49 % 0.00 in
14:05 50.0 °F 31.6 °F 30.04 in NNW 8.2 mph 11.5 mph 49 % 0.00 in
14:10 49.9 °F 31.5 °F 30.05 in NW 6.3 mph 12.0 mph 49 % 0.00 in
14:14 49.7 °F 31.8 °F 30.05 in WNW 3.3 mph 6.9 mph 50 % 0.00 in
14:20 49.6 °F 31.7 °F 30.05 in WSW 6.9 mph 13.8 mph 50 % 0.00 in
14:25 49.4 °F 31.0 °F 30.05 in WNW 6.9 mph 12.7 mph 49 % 0.00 in
14:30 49.2 °F 31.3 °F 30.05 in WSW 3.1 mph 6.9 mph 50 % 0.00 in
14:35 49.1 °F 31.2 °F 30.05 in WNW 6.0 mph 11.5 mph 50 % 0.00 in
14:40 48.9 °F 31.1 °F 30.05 in WNW 8.4 mph 14.0 mph 50 % 0.00 in
14:45 48.8 °F 31.0 °F 30.05 in WNW 3.2 mph 11.5 mph 50 % 0.00 in
14:50 48.8 °F 31.0 °F 30.05 in NW 7.6 mph 17.3 mph 50 % 0.00 in
14:55 48.7 °F 30.4 °F 30.06 in WNW 4.2 mph 12.7 mph 49 % 0.00 in
15:00 48.7 °F 29.9 °F 30.06 in WNW 6.8 mph 13.8 mph 48 % 0.00 in
15:02 48.7 °F 30.4 °F 30.06 in NW 4.6 mph 10.4 mph 49 % 0.00 in
15:07 48.7 °F 30.9 °F 30.07 in NW 3.3 mph 5.8 mph 50 % 0.00 in
15:12 48.7 °F 31.4 °F 30.07 in WNW 4.4 mph 10.4 mph 51 % 0.00 in
15:17 48.7 °F 29.9 °F 30.08 in WNW 8.9 mph 16.0 mph 48 % 0.00 in
15:22 48.7 °F 30.4 °F 30.08 in WNW 5.5 mph 12.7 mph 49 % 0.00 in
15:27 48.6 °F 30.3 °F 30.08 in WNW 6.7 mph 11.5 mph 49 % 0.00 in
15:32 48.6 °F 30.8 °F 30.08 in WNW 3.7 mph 9.2 mph 50 % 0.00 in
15:37 48.6 °F 30.8 °F 30.09 in West 5.0 mph 9.2 mph 50 % 0.00 in
15:42 48.5 °F 31.2 °F 30.09 in West 5.3 mph 11.5 mph 51 % 0.00 in
15:48 48.5 °F 30.7 °F 30.09 in WNW 4.3 mph 11.5 mph 50 % 0.00 in
15:53 48.5 °F 30.2 °F 30.09 in WNW 4.5 mph 8.1 mph 49 % 0.00 in
15:58 48.3 °F 30.5 °F 30.09 in NW 6.1 mph 11.5 mph 50 % 0.00 in
16:03 48.3 °F 30.5 °F 30.09 in West 3.5 mph 10.4 mph 50 % 0.00 in
16:08 48.2 °F 29.9 °F 30.10 in WNW 6.9 mph 12.7 mph 49 % 0.00 in
16:13 48.1 °F 29.8 °F 30.10 in WNW 7.9 mph 12.7 mph 49 % 0.00 in
16:18 48.1 °F 29.3 °F 30.10 in WNW 4.0 mph 9.2 mph 48 % 0.00 in
16:23 48.1 °F 29.8 °F 30.11 in WNW 4.6 mph 10.4 mph 49 % 0.00 in
16:28 48.0 °F 29.7 °F 30.10 in NW 4.0 mph 9.2 mph 49 % 0.00 in
16:33 47.9 °F 30.1 °F 30.11 in NW 3.6 mph 10.0 mph 50 % 0.00 in
16:38 47.9 °F 31.1 °F 30.11 in WNW 3.2 mph 6.9 mph 52 % 0.00 in
16:43 47.8 °F 30.5 °F 30.12 in West 5.4 mph 11.5 mph 51 % 0.00 in
16:48 47.7 °F 30.9 °F 30.12 in WNW 5.8 mph 8.1 mph 52 % 0.00 in
16:53 47.7 °F 30.0 °F 30.12 in West 5.4 mph 13.0 mph 50 % 0.00 in
16:58 47.7 °F 30.4 °F 30.12 in NW 3.1 mph 6.9 mph 51 % 0.00 in
17:03 47.7 °F 30.9 °F 30.13 in WNW 4.6 mph 11.5 mph 52 % 0.00 in
17:08 47.7 °F 30.9 °F 30.13 in WNW 5.3 mph 10.4 mph 52 % 0.00 in
17:13 47.6 °F 29.9 °F 30.13 in NW 4.8 mph 11.5 mph 50 % 0.00 in
17:18 47.7 °F 30.9 °F 30.13 in North 6.0 mph 10.4 mph 52 % 0.00 in
17:23 47.6 °F 30.8 °F 30.13 in NW 5.6 mph 10.4 mph 52 % 0.00 in
17:28 47.5 °F 30.7 °F 30.14 in NW 3.0 mph 10.0 mph 52 % 0.00 in
17:34 47.4 °F 30.6 °F 30.15 in NNW 3.9 mph 12.7 mph 52 % 0.00 in
17:39 47.2 °F 30.5 °F 30.14 in NW 1.9 mph 11.5 mph 52 % 0.00 in
17:44 47.1 °F 30.4 °F 30.15 in West 4.1 mph 10.4 mph 52 % 0.00 in
17:49 47.0 °F 30.3 °F 30.15 in WNW 5.5 mph 12.7 mph 52 % 0.00 in
17:54 46.9 °F 30.2 °F 30.16 in NW 6.6 mph 13.8 mph 52 % 0.00 in
17:59 46.8 °F 30.1 °F 30.17 in NW 3.0 mph 5.8 mph 52 % 0.00 in
18:04 46.7 °F 30.9 °F 30.17 in NNW 5.4 mph 11.5 mph 54 % 0.00 in
18:09 46.7 °F 30.5 °F 30.17 in North 6.5 mph 13.0 mph 53 % 0.00 in
18:14 46.5 °F 30.3 °F 30.17 in North 6.5 mph 12.7 mph 53 % 0.00 in
18:19 46.3 °F 30.1 °F 30.18 in NW 6.2 mph 11.5 mph 53 % 0.00 in
18:24 46.2 °F 29.5 °F 30.19 in NW 6.6 mph 11.5 mph 52 % 0.00 in
18:29 46.0 °F 29.3 °F 30.19 in WNW 3.5 mph 9.2 mph 52 % 0.00 in
18:34 45.9 °F 29.2 °F 30.20 in NNW 4.4 mph 10.4 mph 52 % 0.00 in
18:39 45.8 °F 29.2 °F 30.20 in NW 4.8 mph 10.4 mph 52 % 0.00 in
18:44 45.6 °F 29.0 °F 30.20 in North 7.5 mph 8.0 mph 52 % 0.00 in
18:49 45.5 °F 29.3 °F 30.21 in NNW 5.1 mph 7.0 mph 53 % 0.00 in
18:54 45.4 °F 29.3 °F 30.21 in NW 2.8 mph 10.4 mph 53 % 0.00 in
19:00 45.3 °F 29.2 °F 30.21 in NNW 5.9 mph 11.5 mph 53 % 0.00 in
19:05 45.3 °F 29.2 °F 30.21 in WNW 5.9 mph 11.5 mph 53 % 0.00 in
19:10 45.2 °F 29.1 °F 30.21 in NW 3.5 mph 6.9 mph 53 % 0.00 in
19:15 45.2 °F 29.5 °F 30.22 in NW 4.1 mph 10.4 mph 54 % 0.00 in
19:20 45.1 °F 29.9 °F 30.22 in WNW 2.5 mph 6.0 mph 55 % 0.00 in
19:25 45.1 °F 29.0 °F 30.22 in NNW 4.1 mph 5.8 mph 53 % 0.00 in
19:30 45.0 °F 28.4 °F 30.22 in NNE 4.9 mph 11.5 mph 52 % 0.00 in
19:35 44.9 °F 28.3 °F 30.22 in NNW 4.9 mph 9.2 mph 52 % 0.00 in
19:40 44.8 °F 27.8 °F 30.23 in North 3.7 mph 8.1 mph 51 % 0.00 in
19:45 44.7 °F 28.1 °F 30.22 in NW 5.2 mph 14.0 mph 52 % 0.00 in
19:50 44.7 °F 28.6 °F 30.23 in NW 2.6 mph 5.0 mph 53 % 0.00 in
19:55 44.6 °F 28.0 °F 30.23 in NNW 5.2 mph 8.1 mph 52 % 0.00 in
20:00 44.5 °F 28.4 °F 30.23 in NNW 2.7 mph 4.6 mph 53 % 0.00 in
20:05 44.3 °F 28.2 °F 30.23 in NNW 0.9 mph 3.5 mph 53 % 0.00 in
20:10 44.2 °F 28.6 °F 30.24 in NNE 1.3 mph 4.6 mph 54 % 0.00 in
20:15 44.0 °F 28.4 °F 30.24 in NW 1.0 mph 2.3 mph 54 % 0.00 in
20:20 43.8 °F 27.8 °F 30.24 in NNW 3.4 mph 7.0 mph 53 % 0.00 in
20:25 43.7 °F 28.1 °F 30.24 in North 3.1 mph 4.6 mph 54 % 0.00 in
20:30 43.5 °F 28.4 °F 30.25 in NNE 3.8 mph 5.8 mph 55 % 0.00 in
20:35 43.4 °F 27.8 °F 30.25 in North 2.7 mph 8.0 mph 54 % 0.00 in
20:40 43.3 °F 27.8 °F 30.25 in NNE 5.7 mph 9.0 mph 54 % 0.00 in
20:45 43.2 °F 26.3 °F 30.26 in North 5.1 mph 8.1 mph 51 % 0.00 in
20:50 43.1 °F 26.7 °F 30.26 in NNW 2.4 mph 6.9 mph 52 % 0.00 in
20:55 43.0 °F 27.0 °F 30.26 in NNW 2.9 mph 8.1 mph 53 % 0.00 in
21:00 42.9 °F 26.5 °F 30.26 in North 4.0 mph 6.0 mph 52 % 0.00 in
21:05 42.8 °F 26.4 °F 30.26 in NNW 6.1 mph 10.4 mph 52 % 0.00 in
21:10 42.6 °F 26.2 °F 30.26 in NNW 3.4 mph 6.9 mph 52 % 0.00 in
21:15 42.5 °F 26.6 °F 30.26 in North 3.7 mph 6.9 mph 53 % 0.00 in
21:21 42.4 °F 26.9 °F 30.26 in North 5.0 mph 8.0 mph 54 % 0.00 in
21:26 42.3 °F 27.3 °F 30.27 in NNE 3.0 mph 10.0 mph 55 % 0.00 in
21:31 42.2 °F 27.2 °F 30.27 in NNE 2.0 mph 9.0 mph 55 % 0.00 in
21:36 42.1 °F 26.6 °F 30.27 in NNE 6.0 mph 10.0 mph 54 % 0.00 in
21:41 42.0 °F 27.0 °F 30.27 in North 4.0 mph 5.8 mph 55 % 0.00 in
21:46 41.9 °F 26.0 °F 30.27 in North 5.0 mph 8.0 mph 53 % 0.00 in
21:51 41.8 °F 26.8 °F 30.27 in North 3.0 mph 7.0 mph 55 % 0.00 in
21:56 41.6 °F 26.6 °F 30.27 in North 3.0 mph 7.0 mph 55 % 0.00 in
22:01 41.4 °F 26.4 °F 30.28 in North 2.9 mph 4.6 mph 55 % 0.00 in
22:06 41.3 °F 26.8 °F 30.28 in North 3.6 mph 5.8 mph 56 % 0.00 in
22:11 41.2 °F 27.1 °F 30.29 in North 4.1 mph 7.0 mph 57 % 0.00 in
22:16 41.0 °F 26.9 °F 30.29 in NNE 3.3 mph 5.8 mph 57 % 0.00 in
22:21 40.9 °F 26.8 °F 30.29 in North 3.0 mph 3.5 mph 57 % 0.00 in
22:26 40.8 °F 26.7 °F 30.29 in NNW 3.0 mph 4.6 mph 57 % 0.00 in
22:31 40.7 °F 27.5 °F 30.29 in NNE 3.0 mph 7.0 mph 59 % 0.00 in
22:36 40.5 °F 27.7 °F 30.30 in NNE 3.9 mph 8.1 mph 60 % 0.00 in
22:41 40.3 °F 27.1 °F 30.30 in NNW 4.6 mph 6.9 mph 59 % 0.00 in
22:46 40.2 °F 27.0 °F 30.30 in NE 4.2 mph 8.0 mph 59 % 0.00 in
22:51 40.0 °F 26.8 °F 30.31 in NNE 3.7 mph 8.0 mph 59 % 0.00 in
22:56 40.0 °F 26.8 °F 30.31 in NNE 4.6 mph 8.1 mph 59 % 0.00 in
23:01 39.8 °F 26.6 °F 30.31 in NNE 4.0 mph 8.1 mph 59 % 0.00 in
23:06 39.7 °F 26.5 °F 30.31 in NNE 3.7 mph 4.6 mph 59 % 0.00 in
23:11 39.7 °F 26.5 °F 30.31 in North 3.5 mph 6.9 mph 59 % 0.00 in
23:16 39.6 °F 26.8 °F 30.31 in NE 3.6 mph 5.8 mph 60 % 0.00 in
23:22 39.5 °F 26.8 °F 30.31 in NNE 4.9 mph 6.9 mph 60 % 0.00 in
23:27 39.4 °F 27.1 °F 30.31 in NNE 3.3 mph 4.6 mph 61 % 0.00 in
23:32 39.3 °F 27.0 °F 30.31 in North 3.6 mph 6.9 mph 61 % 0.00 in
23:37 39.2 °F 26.5 °F 30.32 in North 0.8 mph 3.5 mph 60 % 0.00 in
23:42 39.1 °F 26.4 °F 30.32 in North 0.3 mph 3.5 mph 60 % 0.00 in
23:47 39.0 °F 25.9 °F 30.32 in North 0.6 mph 2.0 mph 59 % 0.00 in
23:52 38.9 °F 26.2 °F 30.32 in North 2.4 mph 3.5 mph 60 % 0.00 in
23:57 38.8 °F 26.1 °F 30.32 in North 3.0 mph 3.5 mph 60 % 0.00 in
Crab Meadow Weather
Compliments of Weather Underground - 3 mb

Script developed by  Jim McMurry - jmcmurry@mwt.net Adapted for the template by  Wim van der Kuil - Leuven-Template.eu

Weather Terms: Lake Effect Snow Warning - Lake effect snowfall of 6 inches or more in 12 hours or less, or 8 inches or more in 24 hours or less.